Location: Lobstick
(53.6000°N, 115.1667°W)
Time: 16:31:38
(UTC+00:00)

Gurwin Techsat 1B - Pass Details

Date: 01 December 2023
Orbit: 810 x 813 km, 98.9° (Epoch: 28 February)

Event Time Altitude Azimuth Distance (km) Brightness Sun altitude
Rises 13:10:17 0° 9° (N) 3,350 11.8 -20.2°
Reaches altitude 10° 13:13:19 10° 352° (N) 2,415 10.9 -19.8°
Enters shadow 13:14:35 14° 339° (NNW) 2,123 10.5 -19.6°
